Flag for Germany Weather past 2 weeks in Freiberg, Saxony, Germany

Now
93 °F

Passing clouds.


Feels Like: 92 °F
Forecast: 62 / 79 °F
Wind: 6 mph from West

Location: Dresden-Klotzsche

Current Time: Jul 5, 2015 at 12:36:20 PM

Latest Report: Jul 5, 2015 at 12:20 PM


Visibility: N/A

Pressure: 30.04 "Hg

Humidity: 30%

Dew point: 57 °F

Location of FreibergLocation

Historic Weather in Freiberg — Graph

°F

Freiberg temperature yesterday

Maximum temperature yesterday: 95 °F (at 1:20 PM)
Minimum temperature yesterday: 70 °F (at 4:20 AM)
Average temperature yesterday: 84 °F

Past Weeks' High & Low Weather Summary

 TemperatureHumidityPressure
High95 °F (Jul 4, 1:20 PM)100% (Jun 23, 3:20 AM)30.30 "Hg (Jun 23, 3:20 AM)
Low48 °F (Jun 24, 1:50 AM)25% (Jul 4, 4:50 PM)29.65 "Hg (Jun 23, 12:50 AM)
Average65 °F64%30.09 "Hg
* Reported Jun 20 11:20 AM — Jul 5 11:20 AM, Freiberg, Weather by CustomWeather, © 2015

Note: Actual official high and low records may vary slightly from our data, if they occured in-between our weather recording intervals... More about our weather records

Advertising

Freiberg weather history for previous 24 hours

 ConditionsComfort  
Time TempWeatherWind HumidityBarometerVisibility
11:20 AM
Sun, Jul 5
91 °FSunny.3 mph30%30.07 "Hg10 mi
10:50 AM90 °FSunny.2 mph31%30.07 "Hg10 mi
10:20 AM90 °FSunny.3 mph33%30.07 "Hg10 mi
9:50 AM86 °FSunny.3 mph38%30.07 "Hg10 mi
9:20 AM84 °FPassing clouds.5 mph43%30.07 "HgN/A
8:50 AM81 °FPassing clouds.7 mph48%30.07 "HgN/A
8:20 AM81 °FSunny.8 mph51%30.07 "Hg10 mi
7:50 AM77 °FSunny.10 mph57%30.07 "Hg10 mi
7:20 AM79 °FSunny.7 mph54%30.09 "Hg10 mi
6:50 AM77 °FPassing clouds.6 mph57%30.09 "HgN/A
6:20 AM75 °FPassing clouds.6 mph61%30.09 "HgN/A
5:50 AM77 °FPartly cloudy.8 mph54%30.09 "HgN/A
5:20 AM73 °FPassing clouds.6 mph65%30.09 "HgN/A
4:50 AM73 °FLight rain. Clear.5 mph65%30.09 "HgN/A
4:20 AM75 °FClear.3 mph61%30.09 "Hg10 mi
3:50 AM75 °FPartly cloudy.6 mph61%30.09 "HgN/A
3:20 AM75 °FPartly cloudy.3 mph61%30.09 "HgN/A
2:50 AM75 °FMostly cloudy.2 mph65%30.09 "HgN/A
2:20 AM75 °FOvercast.7 mph65%30.07 "HgN/A
1:50 AM77 °FOvercast.7 mph57%30.09 "HgN/A
1:20 AM79 °FClear.8 mph51%30.09 "Hg10 mi
12:50 AM79 °FClear.6 mph51%30.09 "Hg10 mi
12:20 AM81 °FClear.8 mph48%30.09 "Hg10 mi
11:50 PM
Sat, Jul 4
82 °FClear.9 mph45%30.09 "Hg10 mi
11:20 PM82 °FClear.8 mph48%30.09 "Hg10 mi
10:50 PM82 °FClear.8 mph48%30.09 "Hg10 mi
10:20 PM84 °FSunny.8 mph45%30.09 "Hg10 mi
9:50 PM84 °FSunny.7 mph45%30.09 "Hg10 mi
9:20 PM86 °FSunny.8 mph46%30.09 "Hg10 mi
8:50 PM88 °FSunny.7 mph43%30.09 "Hg10 mi
8:20 PM90 °FSunny.7 mph38%30.09 "Hg10 mi
7:50 PM91 °FSunny.8 mph34%30.09 "Hg10 mi
7:20 PM91 °FSunny.8 mph32%30.09 "Hg10 mi
6:50 PM93 °FSunny.8 mph28%30.09 "Hg10 mi
6:20 PM93 °FPassing clouds.8 mph28%30.09 "HgN/A
5:50 PM93 °FSunny.9 mph28%30.12 "Hg10 mi
5:20 PM95 °FSunny.7 mph25%30.12 "Hg10 mi
4:50 PM95 °FSunny.8 mph25%30.12 "Hg10 mi
4:20 PM95 °FSunny.9 mph26%30.12 "Hg10 mi
3:50 PM95 °FSunny.7 mph26%30.12 "Hg10 mi
3:20 PM95 °FPassing clouds.7 mph26%30.15 "HgN/A
2:50 PM93 °FSunny.3 mph26%30.15 "Hg10 mi
2:20 PM93 °FExtremely hot.2 mph28%30.15 "HgN/A
1:50 PM93 °FSunny.6 mph26%30.15 "Hg10 mi
1:20 PM95 °FSunny.5 mph26%30.15 "Hg10 mi
12:50 PM93 °FSunny.7 mph26%30.18 "Hg10 mi
12:20 PM93 °FExtremely hot.5 mph28%30.18 "HgN/A
Weather by CustomWeather, © 2015

See weather overviewHow to use our weather pages